| time (UTC) | temp F | wind direction | speed MPH | gust MPH | rain 1hr in | rain 24hr in | rain mn in | humidity % | barometer mb |
| 20260503213411 | 56 | 235 | 0.0 | 4.0 | 0.00 | 0.00 | 0.00 | 65 | 1017.9 |
| 20260503211910 | 57 | 160 | 0.0 | 2.0 | 0.00 | 0.00 | 0.00 | 64 | 1018.0 |
| 20260503210410 | 58 | 246 | 0.0 | 0.0 | 0.00 | 0.00 | 0.00 | 64 | 1017.9 |
| 20260503204911 | 57 | 253 | 0.0 | 2.0 | 0.00 | 0.00 | 0.00 | 67 | 1018.0 |
| 20260503203411 | 58 | 254 | 0.0 | 2.0 | 0.00 | 0.00 | 0.00 | 66 | 1017.8 |
| 20260503201912 | 60 | 179 | 1.0 | 2.0 | 0.00 | 0.00 | 0.00 | 63 | 1017.9 |
| 20260503200411 | 61 | 175 | 2.0 | 3.0 | 0.00 | 0.00 | 0.00 | 63 | 1017.9 |
| 20260503194911 | 63 | 175 | 0.0 | 2.0 | 0.00 | 0.00 | 0.00 | 59 | 1018.0 |
| 20260503193411 | 65 | 175 | 3.0 | 5.0 | 0.00 | 0.00 | 0.00 | 55 | 1017.9 |
| 20260503191911 | 65 | 169 | 2.0 | 4.0 | 0.00 | 0.00 | 0.00 | 55 | 1017.8 |
| 20260503190411 | 65 | 150 | 2.0 | 4.0 | 0.00 | 0.00 | 0.00 | 54 | 1017.6 |
| 20260503184911 | 67 | 147 | 3.0 | 5.0 | 0.00 | 0.00 | 0.00 | 52 | 1017.5 |
| 20260503183411 | 69 | 221 | 1.0 | 4.0 | 0.00 | 0.00 | 0.00 | 49 | 1017.5 |
| 20260503181911 | 69 | 232 | 5.0 | 9.0 | 0.00 | 0.00 | 0.00 | 48 | 1017.2 |
| 20260503180411 | 70 | 213 | 3.0 | 5.0 | 0.00 | 0.00 | 0.00 | 49 | 1017.0 |
| 20260503174911 | 71 | 207 | 2.0 | 6.0 | 0.00 | 0.00 | 0.00 | 48 | 1016.8 |
| 20260503170411 | 73 | 221 | 4.0 | 8.0 | 0.00 | 0.00 | 0.00 | 45 | 1016.5 |
| 20260503150411 | 79 | 205 | 1.0 | 5.0 | 0.00 | 0.00 | 0.00 | 39 | 1016.7 |
| 20260503110410 | 73 | 263 | 1.0 | 7.0 | 0.00 | 0.00 | 0.00 | 40 | 1019.2 |
| 20260503090412 | 66 | 67 | 2.0 | 4.0 | 0.00 | 0.00 | 0.00 | 60 | 1020.0 |
| 20260503080411 | 61 | 49 | 1.0 | 5.0 | 0.00 | 0.00 | 0.00 | 68 | 1020.2 |
| 20260503071911 | 56 | 73 | 1.0 | 3.0 | 0.00 | 0.00 | 0.00 | 76 | 1020.0 |
| 20260503070411 | 55 | 49 | 1.0 | 4.0 | 0.00 | 0.00 | 0.00 | 78 | 1020.1 |
| 20260503054910 | 49 | 136 | 0.0 | 0.0 | 0.00 | 0.00 | 0.00 | 87 | 1019.6 |
| 20260503053410 | 47 | 136 | 0.0 | 0.0 | 0.00 | 0.00 | 0.00 | 90 | 1019.4 |
| 20260503051910 | 46 | 136 | 0.0 | 0.0 | 0.00 | 0.00 | 0.00 | 91 | 1019.3 |
| 20260503050415 | 46 | 136 | 0.0 | 0.0 | 0.00 | 0.00 | 0.00 | 91 | 1019.4 |
| 20260503044915 | 45 | 136 | 0.0 | 0.0 | 0.00 | 0.00 | 0.00 | 92 | 1019.3 |
| 20260503043415 | 44 | 136 | 0.0 | 0.0 | 0.00 | 0.00 | 0.00 | 91 | 1019.4 |
| 20260503041915 | 44 | 136 | 0.0 | 0.0 | 0.00 | 0.00 | 0.00 | 91 | 1019.2 |
| 20260503040415 | 44 | 136 | 0.0 | 2.0 | 0.00 | 0.00 | 0.00 | 91 | 1019.4 |
| 20260503034915 | 44 | 136 | 0.0 | 0.0 | 0.00 | 0.00 | 0.00 | 91 | 1019.3 |
| 20260503033414 | 44 | 136 | 0.0 | 1.0 | 0.00 | 0.00 | 0.00 | 90 | 1019.3 |
| 20260503031915 | 44 | 136 | 0.0 | 0.0 | 0.00 | 0.00 | 0.00 | 90 | 1019.4 |
| 20260503030414 | 44 | 136 | 0.0 | 0.0 | 0.00 | 0.00 | 0.00 | 89 | 1019.5 |
| 20260503024917 | 45 | 136 | 0.0 | 1.0 | 0.00 | 0.00 | 0.00 | 88 | 1019.4 |
| 20260503023414 | 46 | 136 | 0.0 | 0.0 | 0.00 | 0.00 | 0.00 | 88 | 1019.4 |
| 20260503021914 | 46 | 136 | 0.0 | 0.0 | 0.00 | 0.00 | 0.00 | 87 | 1019.6 |
| 20260503014913 | 47 | 136 | 0.0 | 1.0 | 0.00 | 0.00 | 0.00 | 87 | 1019.9 |
| 20260503013413 | 47 | 136 | 0.0 | 0.0 | 0.00 | 0.00 | 0.00 | 87 | 1020.0 |
| 20260503011913 | 47 | 136 | 0.0 | 2.0 | 0.00 | 0.00 | 0.00 | 87 | 1020.1 |
| 20260503010413 | 47 | 136 | 0.0 | 0.0 | 0.00 | 0.00 | 0.00 | 86 | 1020.1 |
| 20260503004913 | 47 | 136 | 1.0 | 2.0 | 0.00 | 0.00 | 0.00 | 85 | 1020.1 |
| 20260503003413 | 48 | 136 | 0.0 | 0.0 | 0.00 | 0.00 | 0.00 | 85 | 1020.2 |
| 20260503001913 | 48 | 136 | 0.0 | 0.0 | 0.00 | 0.00 | 0.00 | 84 | 1020.3 |
| 20260503000415 | 49 | 136 | 0.0 | 1.0 | 0.00 | 0.00 | 0.00 | 83 | 1020.4 |
| 20260502234912 | 50 | 136 | 0.0 | 1.0 | 0.00 | 0.00 | 0.00 | 82 | 1020.4 |
| 20260502233412 | 50 | 136 | 1.0 | 2.0 | 0.00 | 0.00 | 0.00 | 82 | 1020.5 |
| 20260502231912 | 50 | 136 | 0.0 | 0.0 | 0.00 | 0.00 | 0.00 | 80 | 1020.6 |
| 20260502230412 | 51 | 136 | 0.0 | 0.0 | 0.00 | 0.00 | 0.00 | 78 | 1020.7 |
| 20260502224912 | 51 | 136 | 0.0 | 0.0 | 0.00 | 0.00 | 0.00 | 79 | 1020.7 |
| 20260502223412 | 53 | 136 | 0.0 | 0.0 | 0.00 | 0.00 | 0.00 | 76 | 1020.9 |
| 20260502221911 | 52 | 136 | 0.0 | 0.0 | 0.00 | 0.00 | 0.00 | 77 | 1020.9 |
| 20260502220412 | 53 | 136 | 0.0 | 0.0 | 0.00 | 0.00 | 0.00 | 75 | 1021.0 |